• In Belgium
  • List of Countries
  • For 7 days
  • Water Temperature
  • Satellite Maps
  • Weather Map
  • Weather Widgets
  • user-avatar
    Login

    Hourly Weather Kavarna

    Today, 22 August, Wednesday

    Time Temperature Precipitation Wind Pressure Humidity
    00:00 +23°C° 0 mm 2 mps 760 mmHg 54%
    01:00 +23°C° 0 mm 2 mps 760 mmHg 52%
    02:00 +22°C° 0 mm 3 mps 760 mmHg 49%
    03:00 +22°C° 0 mm 3 mps 760 mmHg 49%
    04:00 +22°C° 0 mm 3 mps 760 mmHg 48%
    05:00 +22°C° 0 mm 3 mps 760 mmHg 48%
    06:00 +23°C° 0 mm 4 mps 761 mmHg 47%
    07:00 +26°C° 0 mm 4 mps 761 mmHg 45%
    08:00 +27°C° 0 mm 4 mps 761 mmHg 44%
    09:00 +29°C° 0 mm 4 mps 761 mmHg 41%
    10:00 +30°C° 0 mm 4 mps 761 mmHg 38%
    11:00 +33°C° 0 mm 4 mps 761 mmHg 34%
    12:00 +33°C° 0 mm 4 mps 761 mmHg 33%
    13:00 +34°C° 0 mm 4 mps 761 mmHg 31%
    14:00 +34°C° 0 mm 4 mps 761 mmHg 30%
    15:00 +33°C° 0 mm 4 mps 761 mmHg 32%
    16:00 +33°C° 0 mm 4 mps 761 mmHg 35%
    17:00 +32°C° 0 mm 4 mps 761 mmHg 37%
    18:00 +29°C° 0 mm 4 mps 761 mmHg 47%
    19:00 +27°C° 0 mm 3 mps 761 mmHg 57%
    20:00 +26°C° 0 mm 3 mps 761 mmHg 66%
    21:00 +25°C° 0 mm 3 mps 761 mmHg 71%
    22:00 +25°C° 0 mm 3 mps 761 mmHg 75%
    23:00 +25°C° 0 mm 3 mps 761 mmHg 80%

    Tomorrow, 23 August, Thursday

    Time Temperature Precipitation Wind Pressure Humidity
    00:00 +25°C° 0 mm 4 mps 761 mmHg 80%
    01:00 +25°C° 0 mm 4 mps 761 mmHg 80%
    02:00 +23°C° 0 mm 4 mps 761 mmHg 80%
    03:00 +23°C° 0 mm 5 mps 761 mmHg 81%
    04:00 +23°C° 0 mm 5 mps 761 mmHg 82%
    05:00 +23°C° 0 mm 5 mps 760 mmHg 83%
    06:00 +26°C° 0 mm 6 mps 760 mmHg 76%
    07:00 +27°C° 0 mm 6 mps 761 mmHg 69%
    08:00 +29°C° 0 mm 6 mps 761 mmHg 62%
    09:00 +29°C° 0 mm 7 mps 761 mmHg 57%
    10:00 +30°C° 0 mm 7 mps 761 mmHg 52%
    11:00 +32°C° 0 mm 8 mps 761 mmHg 47%
    12:00 +32°C° 0 mm 8 mps 760 mmHg 48%
    13:00 +32°C° 0 mm 8 mps 760 mmHg 49%
    14:00 +32°C° 0 mm 8 mps 760 mmHg 49%
    15:00 +31°C° 0 mm 8 mps 760 mmHg 52%
    16:00 +29°C° 0 mm 8 mps 760 mmHg 55%
    17:00 +29°C° 0 mm 8 mps 759 mmHg 58%
    18:00 +27°C° 0 mm 7 mps 759 mmHg 64%
    19:00 +26°C° 0 mm 6 mps 760 mmHg 70%
    20:00 +24°C° 0 mm 6 mps 760 mmHg 76%
    21:00 +23°C° 0 mm 6 mps 760 mmHg 77%
    22:00 +23°C° 0 mm 5 mps 760 mmHg 79%
    23:00 +23°C° 0 mm 5 mps 760 mmHg 81%

    Day after tomorrow, 24 August, Friday

    Time Temperature Precipitation Wind Pressure Humidity
    00:00 +22°C° 0 mm 5 mps 759 mmHg 82%
    01:00 +22°C° 0 mm 4 mps 759 mmHg 82%
    02:00 +22°C° 0 mm 4 mps 759 mmHg 82%
    03:00 +22°C° 0 mm 4 mps 759 mmHg 83%
    04:00 +22°C° 0 mm 4 mps 758 mmHg 84%
    05:00 +21°C° 0 mm 4 mps 758 mmHg 85%
    06:00 +23°C° 0 mm 4 mps 758 mmHg 80%
    07:00 +25°C° 0 mm 4 mps 758 mmHg 75%
    08:00 +27°C° 0 mm 4 mps 758 mmHg 70%
    09:00 +28°C° 0 mm 5 mps 758 mmHg 64%
    10:00 +29°C° 0 mm 5 mps 758 mmHg 59%
    11:00 +30°C° 0 mm 5 mps 758 mmHg 54%
    12:00 +30°C° 0 mm 5 mps 758 mmHg 52%
    13:00 +30°C° 0 mm 5 mps 758 mmHg 51%
    14:00 +32°C° 0 mm 5 mps 757 mmHg 49%
    15:00 +30°C° 0 mm 5 mps 757 mmHg 51%
    16:00 +29°C° 0 mm 5 mps 757 mmHg 53%
    17:00 +29°C° 0 mm 5 mps 757 mmHg 55%
    18:00 +27°C° 0 mm 5 mps 757 mmHg 63%
    19:00 +26°C° 0 mm 4 mps 757 mmHg 70%
    20:00 +24°C° 0 mm 3 mps 757 mmHg 78%
    21:00 +24°C° 0 mm 3 mps 757 mmHg 80%
    22:00 +24°C° 0 mm 2 mps 757 mmHg 83%
    23:00 +23°C° 0 mm 2 mps 757 mmHg 85%

    25 August, Saturday

    Time Temperature Precipitation Wind Pressure Humidity
    00:00 +23°C° 0 mm 2 mps 757 mmHg 85%
    01:00 +23°C° 0 mm 2 mps 756 mmHg 85%
    02:00 +21°C° 0 mm 2 mps 756 mmHg 85%
    03:00 +21°C° 0 mm 2 mps 756 mmHg 85%
    04:00 +21°C° 0 mm 3 mps 756 mmHg 85%
    05:00 +21°C° 0 mm 3 mps 756 mmHg 85%
    06:00 +22°C° 0 mm 3 mps 756 mmHg 79%
    07:00 +25°C° 0 mm 3 mps 756 mmHg 72%
    08:00 +26°C° 0 mm 4 mps 756 mmHg 66%
    09:00 +27°C° 0 mm 3 mps 756 mmHg 60%
    10:00 +29°C° 0 mm 3 mps 756 mmHg 54%
    11:00 +30°C° 0 mm 3 mps 756 mmHg 47%
    12:00 +31°C° 0 mm 3 mps 756 mmHg 46%
    13:00 +31°C° 0 mm 3 mps 755 mmHg 45%
    14:00 +33°C° 0 mm 3 mps 755 mmHg 43%
    15:00 +31°C° 0 mm 3 mps 755 mmHg 45%
    16:00 +32°C° 0 mm 4 mps 754 mmHg 48%
    17:00 +30°C° 0 mm 4 mps 754 mmHg 50%
    18:00 +28°C° 0 mm 3 mps 754 mmHg 57%
    19:00 +27°C° 0 mm 3 mps 754 mmHg 64%
    20:00 +25°C° 0 mm 3 mps 754 mmHg 71%
    21:00 +25°C° 0 mm 2 mps 754 mmHg 72%
    22:00 +24°C° 0 mm 2 mps 754 mmHg 73%
    23:00 +24°C° 0 mm 1 mps 754 mmHg 74%

    26 August, Sunday

    Time Temperature Precipitation Wind Pressure Humidity
    00:00 +24°C° 0 mm 1 mps 754 mmHg 74%
    01:00 +24°C° 0 mm 1 mps 754 mmHg 74%
    02:00 +23°C° 0 mm 1 mps 754 mmHg 74%
    03:00 +23°C° 0 mm 1 mps 754 mmHg 74%
    04:00 +23°C° 0 mm 1 mps 754 mmHg 74%
    05:00 +23°C° 0 mm 1 mps 754 mmHg 74%
    06:00 +24°C° 0 mm 1 mps 754 mmHg 67%
    07:00 +26°C° 0 mm 1 mps 754 mmHg 60%
    08:00 +28°C° 0 mm 2 mps 754 mmHg 53%
    09:00 +29°C° 0 mm 2 mps 754 mmHg 49%
    10:00 +30°C° 0 mm 2 mps 754 mmHg 45%
    11:00 +31°C° 0 mm 3 mps 754 mmHg 41%
    12:00 +33°C° 0 mm 3 mps 754 mmHg 42%
    13:00 +33°C° 0 mm 3 mps 754 mmHg 42%
    14:00 +33°C° 0 mm 3 mps 753 mmHg 42%
    15:00 +33°C° 0 mm 3 mps 753 mmHg 46%
    16:00 +31°C° 0 mm 3 mps 753 mmHg 49%
    17:00 +30°C° 0 mm 4 mps 753 mmHg 53%
    18:00 +28°C° 0 mm 3 mps 753 mmHg 62%
    19:00 +27°C° 0 mm 3 mps 753 mmHg 70%
    20:00 +25°C° 0 mm 3 mps 753 mmHg 79%
    21:00 +25°C° 0 mm 3 mps 753 mmHg 82%
    22:00 +24°C° 0 mm 3 mps 753 mmHg 85%
    23:00 +24°C° 0 mm 3 mps 753 mmHg 88%

    27 August, Monday

    Time Temperature Precipitation Wind Pressure Humidity
    00:00 +24°C° 0 mm 2 mps 753 mmHg 89%
    01:00 +24°C° 0 mm 2 mps 753 mmHg 90%
    02:00 +24°C° 0 mm 1 mps 753 mmHg 91%
    03:00 +23°C° 0 mm 1 mps 753 mmHg 89%
    04:00 +23°C° 0 mm 2 mps 753 mmHg 87%
    05:00 +23°C° 0 mm 2 mps 754 mmHg 85%
    06:00 +24°C° 0 mm 2 mps 754 mmHg 80%
    07:00 +25°C° 0 mm 3 mps 754 mmHg 75%
    08:00 +26°C° 0 mm 3 mps 755 mmHg 70%
    09:00 +27°C° 0 mm 3 mps 755 mmHg 64%
    10:00 +28°C° 0 mm 3 mps 755 mmHg 59%
    11:00 +30°C° 0 mm 3 mps 755 mmHg 54%
    12:00 +30°C° 0 mm 3 mps 755 mmHg 52%
    13:00 +31°C° 0 mm 3 mps 755 mmHg 49%
    14:00 +33°C° 0 mm 3 mps 754 mmHg 47%
    15:00 +31°C° 0.4 mm 3 mps 754 mmHg 52%
    16:00 +30°C° 0.4 mm 3 mps 754 mmHg 56%
    17:00 +29°C° 0.4 mm 3 mps 754 mmHg 60%
    18:00 +28°C° 0.8 mm 3 mps 755 mmHg 66%
    19:00 +26°C° 0.8 mm 3 mps 755 mmHg 72%
    20:00 +25°C° 0.8 mm 2 mps 755 mmHg 78%
    21:00 +23°C° 0.3 mm 4 mps 755 mmHg 79%
    22:00 +23°C° 0.3 mm 5 mps 755 mmHg 79%
    23:00 +22°C° 0.3 mm 6 mps 755 mmHg 80%
    Show more